Surface/Precipitation History
11/23/2014 17:26  to  11/24/2014 17:26
Change End Date:
Date/Time
(MST)
Sf
Temp Chem Water Layer Surface Precipitation
Sf Sub Frz Factor Pct Depth IcePct Cond Salin Type Intens Accum Rate
11/24/2014 17:21 Dry 30.4F 31F - - - - - 0 mhos 0 Snow Slight 0.05 in 0.0 iph
11/24/2014 17:17 Dry 30.4F 31F - - - - - 0 mhos 0 Snow Slight 0.05 in 0.0 iph
11/24/2014 17:10 Dry 30.6F 31F - - - - - 0 mhos 0 Snow Slight 0.05 in 0.0 iph
11/24/2014 17:07 Dry 30.6F 31F - - - - - 0 mhos 0 Snow Slight 0.05 in 0.0 iph
11/24/2014 16:57 Dry 30.7F 31F - - - - - 0 mhos 0 Snow Slight 0.05 in 0.0 iph
11/24/2014 16:51 Dry 30.7F 31F - - - - - 0 mhos 0 Snow Slight 0.05 in 0.0 iph
11/24/2014 16:47 Dry 30.9F 31F - - - - - 0 mhos 0 None None 0.05 in 0.0 iph
11/24/2014 16:40 Dry 30.7F 31F - - - - - 0 mhos 0 Snow Slight 0.05 in 0.0 iph
11/24/2014 16:37 Dry 30.7F 31F - - - - - 0 mhos 0 None None 0.05 in 0.0 iph
11/24/2014 16:27 Dry 30.9F 31F - - - - - 0 mhos 0 Snow Slight 0.05 in 0.0 iph
11/24/2014 16:21 Dry 31.3F 31F - - - - - 0 mhos 0 Snow Slight 0.05 in 0.0 iph
11/24/2014 16:17 Dry 31.3F 31F - - - - - 0 mhos 0 Snow Slight 0.05 in 0.0 iph
11/24/2014 16:10 Dry 31.3F 31F - - - - - 0 mhos 0 None None 0.05 in 0.0 iph
11/24/2014 16:07 Dry 31.5F 31F - - - - - 0 mhos 0 None None 0.05 in 0.0 iph
11/24/2014 15:57 Dry 31.6F 31F - - - - - 0 mhos 0 None None 0.05 in 0.0 iph
Date/Time
(MST)
Sf
Temp Chem Water Layer Surface Precipitation
Sf Sub Frz Factor Pct Depth IcePct Cond Salin Type Intens Accum Rate
11/24/2014 15:51 Dry 31.6F 31F - - - - - 0 mhos 0 None None 0.05 in 0.0 iph
11/24/2014 15:47 Dry 31.8F 31F - - - - - 0 mhos 0 None None 0.05 in 0.0 iph
11/24/2014 15:41 Dry 32.0F 31F - - - - - 0 mhos 0 None None 0.05 in 0.0 iph
11/24/2014 15:37 Dry 31.8F 31F - - - - - 0 mhos 0 None None 0.05 in 0.0 iph
11/24/2014 15:27 Dry 31.8F 31F - - - - - 0 mhos 0 None None 0.05 in 0.0 iph
11/24/2014 15:21 Dry 32.0F 31F - - - - - 0 mhos 0 None None 0.05 in 0.0 iph
11/24/2014 15:16 Dry 32.4F 30F - - - - - 0 mhos 0 None None 0.05 in 0.0 iph
11/24/2014 15:10 Dry 32.2F 31F - - - - - 0 mhos 0 None None 0.05 in 0.0 iph
11/24/2014 15:06 Dry 32.4F 30F - - - - - 0 mhos 0 None None 0.05 in 0.0 iph
11/24/2014 14:56 Dry 32.5F 30F - - - - - 0 mhos 0 None None 0.06 in 0.0 iph
11/24/2014 14:51 Dry 32.7F 30F - - - - - 0 mhos 0 None None 0.06 in 0.0 iph
11/24/2014 14:46 Dry 32.7F 30F - - - - - 0 mhos 0 None None 0.06 in 0.0 iph
11/24/2014 14:40 Dry 33.1F 30F - - - - - 0 mhos 0 None None 0.06 in 0.0 iph
11/24/2014 14:36 Dry 33.1F 30F - - - - - 0 mhos 0 None None 0.06 in 0.0 iph
11/24/2014 14:26 Dry 33.4F 30F - - - - - 0 mhos 0 None None 0.06 in 0.0 iph
Date/Time
(MST)
Sf
Temp Chem Water Layer Surface Precipitation
Sf Sub Frz Factor Pct Depth IcePct Cond Salin Type Intens Accum Rate
11/24/2014 14:21 Dry 33.6F 30F - - - - - 0 mhos 0 None None 0.06 in 0.0 iph
11/24/2014 14:16 Dry 33.8F 30F - - - - - 0 mhos 0 None None 0.06 in 0.0 iph
11/24/2014 14:11 Dry 34.0F 30F - - - - - 0 mhos 0 None None 0.06 in 0.0 iph
11/24/2014 14:06 Dry 34.3F 30F - - - - - 0 mhos 0 None None 0.06 in 0.0 iph
11/24/2014 13:56 Dry 35.4F 30F - - - - - 0 mhos 0 None None 0.06 in 0.0 iph
11/24/2014 13:51 Dry 36.0F 30F - - - - - 0 mhos 0 None None 0.06 in 0.0 iph
11/24/2014 13:46 Dry 36.1F 30F - - - - - 0 mhos 0 None None 0.06 in 0.0 iph
11/24/2014 13:41 Dry 36.5F 30F - - - - - 0 mhos 0 None None 0.06 in 0.0 iph
11/24/2014 13:36 Dry 36.5F 30F - - - - - 0 mhos 0 None None 0.06 in 0.0 iph
11/24/2014 13:26 Dry 36.1F 30F - - - - - 0 mhos 0 None None 0.06 in 0.0 iph
11/24/2014 13:21 Dry 36.1F 30F - - - - - 0 mhos 0 None None 0.06 in 0.0 iph
11/24/2014 13:16 Dry 35.4F 30F - - - - - 0 mhos 0 None None 0.06 in 0.0 iph
11/24/2014 13:11 Dry 35.2F 30F - - - - - 0 mhos 0 None None 0.06 in 0.0 iph
11/24/2014 13:06 Dry 35.4F 30F - - - - - 0 mhos 0 None None 0.06 in 0.0 iph
11/24/2014 12:56 Dry 36.1F 30F - - - - - 0 mhos 0 None None 0.06 in 0.0 iph
Date/Time
(MST)
Sf
Temp Chem Water Layer Surface Precipitation
Sf Sub Frz Factor Pct Depth IcePct Cond Salin Type Intens Accum Rate
11/24/2014 12:51 Dry 36.5F 30F - - - - - 0 mhos 0 None None 0.06 in 0.0 iph
11/24/2014 12:46 Dry 36.5F 30F - - - - - 0 mhos 0 None None 0.06 in 0.0 iph
11/24/2014 12:40 Dry 36.1F 30F - - - - - 0 mhos 0 None None 0.06 in 0.0 iph
11/24/2014 12:35 Dry 35.6F 30F - - - - - 0 mhos 0 None None 0.06 in 0.0 iph
11/24/2014 12:25 Dry 35.4F 30F - - - - - 0 mhos 0 None None 0.06 in 0.0 iph
11/24/2014 12:21 Dry 35.2F 30F - - - - - 0 mhos 0 None None 0.06 in 0.0 iph
11/24/2014 12:15 Dry 35.1F 30F - - - - - 0 mhos 0 None None 0.06 in 0.0 iph
11/24/2014 12:10 Dry 35.1F 30F - - - - - 0 mhos 0 None None 0.06 in 0.0 iph
11/24/2014 12:05 Dry 34.9F 30F - - - - - 0 mhos 0 None None 0.06 in 0.0 iph
11/24/2014 11:55 Dry 34.7F 30F - - - - - 0 mhos 0 None None 0.06 in 0.0 iph
11/24/2014 11:51 Dry 34.5F 30F - - - - - 0 mhos 0 None None 0.06 in 0.0 iph
11/24/2014 11:45 Dry 34.5F 30F - - - - - 0 mhos 1 None None 0.06 in 0.0 iph
11/24/2014 11:40 Dry 34.3F 30F - - - - - 0 mhos 7 None None 0.06 in 0.0 iph
11/24/2014 11:35 Dry 34.3F 30F - - - - - 0 mhos 13 None None 0.06 in 0.0 iph
11/24/2014 11:25 Dry 34.3F 30F - - - - - 0 mhos 19 None None 0.06 in 0.0 iph
Date/Time
(MST)
Sf
Temp Chem Water Layer Surface Precipitation
Sf Sub Frz Factor Pct Depth IcePct Cond Salin Type Intens Accum Rate
11/24/2014 11:21 Dry 34.2F 30F - - - - - 0 mhos 19 None None 0.06 in 0.0 iph
11/24/2014 11:15 Dry 33.8F 30F - - - - - 0 mhos 20 None None 0.06 in 0.0 iph
11/24/2014 11:11 Dry 33.6F 31F - - - - - 0 mhos 22 None None 0.06 in 0.0 iph
11/24/2014 11:05 Dry 33.1F 30F - - - - - 0 mhos 27 None None 0.06 in 0.0 iph
11/24/2014 10:55 Dry 32.5F 30F - - - - - 0 mhos 36 None None 0.06 in 0.0 iph
11/24/2014 10:51 Dry 32.2F 31F - - - - - 0 mhos 42 None None 0.06 in 0.0 iph
11/24/2014 10:45 Dry 31.8F 31F - - - - - 0 mhos 44 None None 0.06 in 0.0 iph
11/24/2014 10:41 Dry 31.5F 31F - - - - - 0 mhos 49 None None 0.06 in 0.0 iph
11/24/2014 10:35 Dry 31.1F 31F - - - - - 0 mhos 43 None None 0.06 in 0.0 iph
11/24/2014 10:25 Dry 30.2F 31F - - - - - 0 mhos 43 None None 0.06 in 0.0 iph
11/24/2014 10:21 Dry 30.0F 31F - - - - - 0 mhos 43 None None 0.06 in 0.0 iph
11/24/2014 10:15 Dry 29.3F 31F - - - - - 0 mhos 44 None None 0.06 in 0.0 iph
11/24/2014 10:11 Dry 28.9F 31F - - - - - 0 mhos 44 None None 0.06 in 0.0 iph
11/24/2014 10:05 Dry 28.4F 31F - - - - - 0 mhos 45 None None 0.06 in 0.0 iph
11/24/2014 09:55 Dry 27.5F 31F - - - - - 0 mhos 48 None None 0.06 in 0.0 iph
Date/Time
(MST)
Sf
Temp Chem Water Layer Surface Precipitation
Sf Sub Frz Factor Pct Depth IcePct Cond Salin Type Intens Accum Rate
11/24/2014 09:51 Dry 27.3F 31F - - - - - 0 mhos 48 None None 0.06 in 0.0 iph
11/24/2014 09:44 Dry 26.6F 31F - - - - - 0 mhos 49 None None 0.06 in 0.0 iph
11/24/2014 09:41 Dry 26.2F 31F - - - - - 0 mhos 50 None None 0.06 in 0.0 iph
11/24/2014 09:34 Dry 25.7F 31F - - - - - 0 mhos 51 None None 0.06 in 0.0 iph
11/24/2014 09:24 Ice Warning 24.6F 31F 32F 5 0% - 99% 0 mhos 53 None None 0.06 in 0.0 iph
11/24/2014 09:21 Ice Warning 24.1F 31F 32F 5 0% - 99% 0 mhos 53 None None 0.06 in 0.0 iph
11/24/2014 09:14 Ice Warning 23.5F 31F 32F 5 0% - 99% 0 mhos 53 None None 0.06 in 0.0 iph
11/24/2014 09:11 Ice Warning 23.4F 31F 32F 5 0% - 99% 0 mhos 53 None None 0.06 in 0.0 iph
11/24/2014 09:04 Ice Warning 22.5F 31F 32F 5 0% - 99% 0 mhos 53 None None 0.06 in 0.0 iph
11/24/2014 08:54 Ice Warning 21.6F 31F 32F 10 0% - 100% 0 mhos 52 None None 0.06 in 0.0 iph
11/24/2014 08:51 Ice Warning 21.2F 31F 32F 10 0% - 100% 0 mhos 52 None None 0.06 in 0.0 iph
11/24/2014 08:44 Ice Warning 20.8F 31F 32F 10 0% - 100% 0 mhos 52 None None 0.06 in 0.0 iph
11/24/2014 08:40 Ice Warning 20.8F 31F 32F 10 0% - 100% 0 mhos 52 None None 0.06 in 0.0 iph
11/24/2014 08:34 Ice Warning 20.7F 31F 32F 10 0% - 100% 0 mhos 52 None None 0.06 in 0.0 iph
11/24/2014 08:24 Ice Warning 19.9F 31F 32F 15 0% - 100% 0 mhos 52 None None 0.06 in 0.0 iph
Date/Time
(MST)
Sf
Temp Chem Water Layer Surface Precipitation
Sf Sub Frz Factor Pct Depth IcePct Cond Salin Type Intens Accum Rate
11/24/2014 08:21 Ice Warning 20.1F 31F 32F 15 0% - 100% 0 mhos 51 None None 0.06 in 0.0 iph
11/24/2014 08:14 Ice Warning 19.8F 31F 32F 15 0% - 100% 0 mhos 51 None None 0.06 in 0.0 iph
11/24/2014 08:11 Ice Warning 19.8F 31F 32F 10 0% - 100% 0 mhos 51 None None 0.06 in 0.0 iph
11/24/2014 08:04 Ice Warning 19.8F 31F 32F 15 0% - 100% 0 mhos 51 None None 0.06 in 0.0 iph
11/24/2014 07:54 Ice Warning 19.8F 31F 32F 15 0% - 100% 0 mhos 51 None None 0.06 in 0.0 iph
11/24/2014 07:51 Ice Warning 19.6F 31F 32F 15 0% - 100% 0 mhos 50 None None 0.06 in 0.0 iph
11/24/2014 07:44 Ice Warning 19.6F 31F 32F 15 0% - 100% 0 mhos 50 None None 0.06 in 0.0 iph
11/24/2014 07:40 Ice Warning 19.6F 31F 32F 15 0% - 100% 0 mhos 50 None None 0.06 in 0.0 iph
11/24/2014 07:34 Ice Warning 19.8F 31F 32F 15 0% - 100% 0 mhos 50 None None 0.06 in 0.0 iph
11/24/2014 07:24 Ice Warning 19.4F 31F 32F 15 0% - 100% 0 mhos 49 None None 0.06 in 0.0 iph
11/24/2014 07:21 Ice Warning 19.6F 31F 32F 15 0% - 100% 0 mhos 49 None None 0.06 in 0.0 iph
11/24/2014 07:14 Ice Warning 19.4F 31F 32F 15 0% - 100% 0 mhos 49 None None 0.06 in 0.0 iph
11/24/2014 07:10 Ice Warning 19.8F 31F 32F 15 0% - 100% 0 mhos 48 None None 0.06 in 0.0 iph
11/24/2014 07:04 Ice Warning 19.6F 31F 32F 15 0% - 100% 0 mhos 48 None None 0.06 in 0.0 iph
11/24/2014 06:54 Ice Warning 19.8F 31F 32F 35 0% - 100% 0 mhos 47 None None 0.06 in 0.0 iph
Date/Time
(MST)
Sf
Temp Chem Water Layer Surface Precipitation
Sf Sub Frz Factor Pct Depth IcePct Cond Salin Type Intens Accum Rate
11/24/2014 06:51 Ice Warning 19.8F 31F 32F 40 0% - 100% 0 mhos 47 None None 0.06 in 0.0 iph
11/24/2014 06:43 Ice Warning 19.9F 31F 32F 30 0% - 100% 0 mhos 47 None None 0.06 in 0.0 iph
11/24/2014 06:40 Ice Warning 19.9F 31F 32F 20 0% - 100% 0 mhos 46 None None 0.06 in 0.0 iph
11/24/2014 06:33 Ice Warning 19.8F 31F 32F 25 0% - 100% 0 mhos 46 None None 0.06 in 0.0 iph
11/24/2014 06:23 Ice Warning 19.9F 31F 32F 25 0% - 100% 0 mhos 45 None None 0.06 in 0.0 iph
11/24/2014 06:21 Ice Warning 19.9F 31F 32F 30 0% - 100% 0 mhos 44 None None 0.06 in 0.0 iph
11/24/2014 06:13 Ice Warning 20.3F 31F 32F 20 0% - 100% 0 mhos 43 None None 0.06 in 0.0 iph
11/24/2014 06:11 Ice Warning 20.1F 31F 32F 25 0% - 100% 0 mhos 43 None None 0.06 in 0.0 iph
11/24/2014 06:03 Ice Warning 20.3F 31F 32F 35 0% - 100% 0 mhos 41 None None 0.06 in 0.0 iph
11/24/2014 05:53 Ice Warning 20.5F 31F 32F 30 0% - 100% 0 mhos 39 None None 0.06 in 0.0 iph
11/24/2014 05:51 Ice Warning 20.7F 31F 32F 35 0% - 100% 0 mhos 38 None None 0.06 in 0.0 iph
11/24/2014 05:43 Ice Warning 20.8F 31F 32F 10 0% - 100% 0 mhos 35 None None 0.06 in 0.0 iph
11/24/2014 05:40 Ice Warning 20.8F 31F 32F 10 0% - 100% 0 mhos 34 None None 0.06 in 0.0 iph
11/24/2014 05:33 Ice Warning 20.7F 31F 32F 10 0% - 100% 0 mhos 32 None None 0.06 in 0.0 iph
11/24/2014 05:23 Ice Warning 20.7F 31F 32F 5 0% - 100% 0 mhos 29 None None 0.06 in 0.0 iph
Date/Time
(MST)
Sf
Temp Chem Water Layer Surface Precipitation
Sf Sub Frz Factor Pct Depth IcePct Cond Salin Type Intens Accum Rate
11/24/2014 05:21 Ice Warning 20.7F 31F 32F 5 0% - 100% 0 mhos 27 None None 0.06 in 0.0 iph
11/24/2014 05:13 Ice Warning 21.0F 31F 32F 5 0% - 100% 0 mhos 28 None None 0.06 in 0.0 iph
11/24/2014 05:10 Ice Warning 21.0F 31F 32F 5 0% - 100% 0 mhos 27 None None 0.06 in 0.0 iph
11/24/2014 05:03 Ice Warning 21.2F 31F 32F 5 0% - 100% 0 mhos 28 None None 0.06 in 0.0 iph
11/24/2014 04:53 Ice Warning 21.6F 31F 32F 5 0% - 100% 0 mhos 29 None None 0.06 in 0.0 iph
11/24/2014 04:51 Ice Warning 21.6F 31F 32F 5 0% - 100% 0 mhos 29 None None 0.06 in 0.0 iph
11/24/2014 04:43 Ice Warning 21.4F 31F 32F 5 0% - 100% 0 mhos 30 None None 0.06 in 0.0 iph
11/24/2014 04:40 Ice Warning 21.4F 31F 32F 5 0% - 100% 0 mhos 29 None None 0.06 in 0.0 iph
11/24/2014 04:33 Ice Warning 21.0F 31F 32F 5 0% - 100% 0 mhos 29 None None 0.06 in 0.0 iph
11/24/2014 04:23 Ice Warning 21.2F 31F 32F 5 0% - 100% 0 mhos 29 None None 0.06 in 0.0 iph
11/24/2014 04:21 Ice Warning 21.2F 31F 32F 5 0% - 100% 0 mhos 29 None None 0.06 in 0.0 iph
11/24/2014 04:13 Ice Warning 21.6F 31F 32F 5 0% - 100% 0 mhos 30 None None 0.06 in 0.0 iph
11/24/2014 04:11 Ice Warning 21.4F 31F 32F 5 0% - 100% 0 mhos 30 None None 0.06 in 0.0 iph
11/24/2014 04:03 Ice Warning 21.6F 31F 32F 5 0% - 100% 0 mhos 30 None None 0.06 in 0.0 iph
11/24/2014 03:52 Ice Warning 21.0F 31F 32F 5 0% - 100% 0 mhos 30 None None 0.06 in 0.0 iph
Date/Time
(MST)
Sf
Temp Chem Water Layer Surface Precipitation
Sf Sub Frz Factor Pct Depth IcePct Cond Salin Type Intens Accum Rate
11/24/2014 03:51 Ice Warning 20.8F 31F 32F 5 0% - 100% 0 mhos 30 None None 0.06 in 0.0 iph
11/24/2014 03:42 Ice Warning 20.8F 31F 32F 5 0% - 100% 0 mhos 30 None None 0.06 in 0.0 iph
11/24/2014 03:41 Ice Warning 20.8F 31F 32F 5 0% - 100% 0 mhos 30 None None 0.06 in 0.0 iph
11/24/2014 03:32 Ice Warning 20.7F 31F 32F 5 0% - 100% 0 mhos 30 None None 0.06 in 0.0 iph
11/24/2014 03:22 Ice Warning 20.7F 31F 32F 5 0% - 100% 0 mhos 30 None None 0.06 in 0.0 iph
11/24/2014 03:21 Ice Warning 20.8F 31F 32F 5 0% - 100% 0 mhos 30 None None 0.06 in 0.0 iph
11/24/2014 03:12 Ice Warning 21.0F 31F 32F 5 0% - 100% 0 mhos 31 None None 0.06 in 0.0 iph
11/24/2014 03:11 Ice Warning 21.2F 31F 32F 5 0% - 100% 0 mhos 31 None None 0.06 in 0.0 iph
11/24/2014 03:02 Ice Warning 21.6F 31F 32F 5 0% - 100% 0 mhos 31 None None 0.06 in 0.0 iph
11/24/2014 02:52 Ice Warning 21.7F 31F 32F 5 0% - 100% 0 mhos 30 None None 0.06 in 0.0 iph
11/24/2014 02:51 Ice Warning 21.7F 31F 32F 5 0% - 100% 0 mhos 30 None None 0.06 in 0.0 iph
11/24/2014 02:42 Ice Warning 22.1F 31F 32F 5 0% - 100% 0 mhos 30 None None 0.06 in 0.0 iph
11/24/2014 02:40 Ice Warning 22.1F 31F 32F 5 0% - 100% 0 mhos 30 None None 0.06 in 0.0 iph
11/24/2014 02:32 Ice Warning 22.1F 31F 32F 5 0% - 100% 0 mhos 30 None None 0.06 in 0.0 iph
11/24/2014 02:22 Ice Warning 22.1F 31F 32F 5 0% - 100% 0 mhos 29 None None 0.06 in 0.0 iph
Date/Time
(MST)
Sf
Temp Chem Water Layer Surface Precipitation
Sf Sub Frz Factor Pct Depth IcePct Cond Salin Type Intens Accum Rate
11/24/2014 02:21 Ice Warning 22.3F 31F 32F 5 0% - 100% 0 mhos 29 None None 0.06 in 0.0 iph
11/24/2014 02:12 Ice Warning 22.5F 31F 32F 5 0% - 100% 0 mhos 30 None None 0.06 in 0.0 iph
11/24/2014 02:11 Ice Warning 22.5F 31F 32F 5 0% - 100% 0 mhos 30 None None 0.06 in 0.0 iph
11/24/2014 02:02 Ice Warning 22.5F 31F 32F 5 0% - 100% 0 mhos 29 None None 0.06 in 0.0 iph
11/24/2014 01:52 Ice Warning 22.1F 31F 32F 5 0% - 100% 0 mhos 29 None None 0.06 in 0.0 iph
11/24/2014 01:51 Ice Warning 22.3F 31F 32F 5 0% - 100% 0 mhos 29 None None 0.06 in 0.0 iph
11/24/2014 01:42 Ice Warning 22.5F 31F 32F 5 0% - 100% 0 mhos 29 None None 0.06 in 0.0 iph
11/24/2014 01:40 Ice Warning 22.5F 31F 32F 5 0% - 100% 0 mhos 29 None None 0.06 in 0.0 iph
11/24/2014 01:32 Ice Warning 22.5F 31F 32F 5 0% - 100% 0 mhos 29 None None 0.06 in 0.0 iph
11/24/2014 01:22 Ice Warning 22.6F 31F 32F 5 0% - 100% 0 mhos 30 None None 0.06 in 0.0 iph
11/24/2014 01:21 Ice Warning 22.6F 31F 32F 5 0% - 100% 0 mhos 30 None None 0.06 in 0.0 iph
11/24/2014 01:12 Ice Warning 22.8F 31F 32F 5 0% - 100% 0 mhos 31 None None 0.06 in 0.0 iph
11/24/2014 01:11 Ice Warning 22.8F 31F 32F 5 0% - 100% 0 mhos 31 None None 0.06 in 0.0 iph
11/24/2014 01:02 Ice Warning 23.0F 31F 32F 5 0% - 100% 0 mhos 32 None None 0.06 in 0.0 iph
11/24/2014 00:51 Ice Warning 23.2F 31F 32F 5 0% - 100% 0 mhos 33 None None 0.06 in 0.0 iph
Date/Time
(MST)
Sf
Temp Chem Water Layer Surface Precipitation
Sf Sub Frz Factor Pct Depth IcePct Cond Salin Type Intens Accum Rate
11/24/2014 00:51 Ice Warning 23.2F 31F 32F 5 0% - 100% 0 mhos 33 None None 0.06 in 0.0 iph
11/24/2014 00:41 Ice Warning 23.7F 31F 32F 5 0% - 100% 0 mhos 34 None None 0.06 in 0.0 iph
11/24/2014 00:40 Ice Warning 23.7F 31F 32F 5 0% - 100% 0 mhos 34 None None 0.06 in 0.0 iph
11/24/2014 00:31 Ice Warning 23.9F 31F 32F 5 0% - 100% 0 mhos 35 None None 0.06 in 0.0 iph
11/24/2014 00:21 Ice Warning 23.9F 31F 32F 5 0% - 100% 0 mhos 35 None None 0.06 in 0.0 iph
11/24/2014 00:21 Ice Warning 23.9F 31F 32F 5 0% - 100% 0 mhos 35 None None 0.06 in 0.0 iph
11/24/2014 00:11 Ice Warning 23.9F 31F 32F 5 0% - 100% 0 mhos 34 None None 0.06 in 0.0 iph
11/24/2014 00:04 Ice Warning 23.5F 31F 32F 5 0% - 100% 0 mhos 34 None None 0.06 in 0.0 iph
11/24/2014 00:01 Ice Warning 23.5F 31F 32F 5 0% - 100% 0 mhos 34 None None 0.06 in 0.0 iph
11/23/2014 23:51 Ice Warning 23.7F 31F 32F 5 0% - 100% 0 mhos 35 None None 0.06 in 0.0 iph
11/23/2014 23:41 Ice Warning 23.9F 31F 32F 5 0% - 100% 0 mhos 35 None None 0.06 in 0.0 iph
11/23/2014 23:40 Ice Warning 24.1F 31F 32F 5 0% - 100% 0 mhos 35 None None 0.06 in 0.0 iph
11/23/2014 23:31 Ice Warning 24.3F 31F 32F 5 0% - 100% 0 mhos 36 None None 0.06 in 0.0 iph
11/23/2014 23:21 Ice Warning 24.8F 31F 32F 5 0% - 100% 0 mhos 37 None None 0.06 in 0.0 iph
11/23/2014 23:21 Ice Warning 24.8F 31F 32F 5 0% - 100% 0 mhos 37 None None 0.06 in 0.0 iph
Date/Time
(MST)
Sf
Temp Chem Water Layer Surface Precipitation
Sf Sub Frz Factor Pct Depth IcePct Cond Salin Type Intens Accum Rate
11/23/2014 23:11 Ice Warning 25.0F 31F 32F 5 0% - 99% 0 mhos 38 None None 0.06 in 0.0 iph
11/23/2014 23:10 Ice Warning 25.0F 31F 32F 5 0% - 99% 0 mhos 38 None None 0.06 in 0.0 iph
11/23/2014 23:01 Ice Warning 25.3F 31F 32F 5 0% - 99% 0 mhos 39 None None 0.06 in 0.0 iph
11/23/2014 22:51 Ice Warning 25.3F 31F 32F 5 0% - 99% 0 mhos 39 None None 0.06 in 0.0 iph
11/23/2014 22:51 Ice Warning 25.3F 31F 32F 5 0% - 99% 0 mhos 39 None None 0.06 in 0.0 iph
11/23/2014 22:41 Ice Warning 25.7F 31F 32F 5 0% - 99% 0 mhos 39 None None 0.06 in 0.0 iph
11/23/2014 22:40 Ice Warning 25.7F 31F 32F 5 0% - 99% 0 mhos 39 None None 0.06 in 0.0 iph
11/23/2014 22:31 Ice Warning 25.7F 31F 32F 5 0% - 99% 0 mhos 40 None None 0.06 in 0.0 iph
11/23/2014 22:21 Ice Warning 25.7F 31F 32F 5 0% - 99% 0 mhos 40 None None 0.06 in 0.0 iph
11/23/2014 22:21 Ice Warning 25.7F 31F 32F 5 0% - 99% 0 mhos 40 None None 0.06 in 0.0 iph
11/23/2014 22:11 Ice Warning 25.5F 31F 32F 5 0% - 99% 0 mhos 40 None None 0.06 in 0.0 iph
11/23/2014 22:10 Ice Warning 25.5F 31F 32F 5 0% - 99% 0 mhos 40 None None 0.06 in 0.0 iph
11/23/2014 22:00 Ice Warning 26.1F 31F 32F 5 0% - 99% 0 mhos 40 Snow Slight 0.06 in 0.0 iph
11/23/2014 21:51 Ice Warning 26.1F 31F 32F 10 0% - 99% 0 mhos 41 Snow Slight 0.06 in 0.0 iph
11/23/2014 21:50 Ice Warning 26.1F 31F 32F 10 0% - 99% 0 mhos 41 Snow Slight 0.06 in 0.0 iph
Date/Time
(MST)
Sf
Temp Chem Water Layer Surface Precipitation
Sf Sub Frz Factor Pct Depth IcePct Cond Salin Type Intens Accum Rate
11/23/2014 21:40 Ice Warning 26.2F 31F 32F 10 0% - 99% 0 mhos 41 None None 0.06 in 0.0 iph
11/23/2014 21:40 Ice Warning 26.2F 31F 32F 10 0% - 99% 0 mhos 41 None None 0.06 in 0.0 iph
11/23/2014 21:30 Ice Warning 26.2F 31F 32F 10 0% - 99% 0 mhos 41 None None 0.06 in 0.0 iph
11/23/2014 21:21 Ice Warning 26.6F 31F 32F 15 0% - 99% 0 mhos 41 None None 0.06 in 0.0 iph
11/23/2014 21:20 Ice Warning 26.6F 31F 32F 15 0% - 99% 0 mhos 41 None None 0.06 in 0.0 iph
11/23/2014 21:10 Ice Warning 26.6F 31F 32F 15 0% - 99% 0 mhos 41 None None 0.06 in 0.0 iph
11/23/2014 21:10 Ice Warning 26.6F 31F 32F 15 0% - 99% 0 mhos 41 None None 0.06 in 0.0 iph
11/23/2014 21:00 Ice Warning 26.2F 31F 32F 20 0% - 99% 0 mhos 40 Snow Slight 0.06 in 0.0 iph
11/23/2014 20:51 Ice Warning 26.4F 31F 32F 15 0% - 99% 0 mhos 40 Snow Slight 0.06 in 0.0 iph
11/23/2014 20:50 Ice Warning 26.4F 31F 32F 15 0% - 99% 0 mhos 40 Snow Slight 0.06 in 0.0 iph
11/23/2014 20:40 Ice Warning 26.8F 31F 32F 15 0% - 99% 0 mhos 39 None None 0.06 in 0.0 iph
11/23/2014 20:40 Ice Warning 26.8F 31F 32F 15 0% - 99% 0 mhos 39 None None 0.06 in 0.0 iph
11/23/2014 20:30 Ice Warning 27.0F 31F 32F 20 0% - 99% 0 mhos 39 Snow Slight 0.06 in 0.0 iph
11/23/2014 20:21 Ice Warning 27.3F 31F 32F 20 0% - 99% 0 mhos 39 Snow Slight 0.06 in 0.0 iph
11/23/2014 20:20 Ice Warning 27.3F 31F 32F 15 0% - 99% 0 mhos 39 Snow Slight 0.06 in 0.0 iph
Date/Time
(MST)
Sf
Temp Chem Water Layer Surface Precipitation
Sf Sub Frz Factor Pct Depth IcePct Cond Salin Type Intens Accum Rate
11/23/2014 20:10 Ice Warning 27.3F 31F 32F 35 0% - 99% 0 mhos 39 Snow Slight 0.06 in 0.0 iph
11/23/2014 20:10 Ice Warning 27.3F 31F 32F 20 0% - 99% 0 mhos 39 Snow Slight 0.06 in 0.0 iph
11/23/2014 20:00 Ice Warning 27.1F 31F 32F 25 0% - 99% 0 mhos 39 Snow Slight 0.06 in 0.0 iph
11/23/2014 19:51 Ice Warning 27.3F 31F 32F 25 0% - 99% 0 mhos 39 Snow Slight 0.06 in 0.0 iph
11/23/2014 19:50 Ice Warning 27.3F 31F 32F 20 0% - 99% 0 mhos 39 Snow Slight 0.06 in 0.0 iph
11/23/2014 19:40 Ice Warning 27.3F 31F 32F 15 0% - 99% 0 mhos 39 Snow Slight 0.06 in 0.0 iph
11/23/2014 19:40 Ice Warning 27.1F 31F 32F 15 0% - 99% 0 mhos 39 Snow Slight 0.06 in 0.0 iph
11/23/2014 19:30 Ice Warning 27.1F 31F 32F 10 0% - 99% 0 mhos 38 Snow Slight 0.06 in 0.0 iph
11/23/2014 19:22 Ice Warning 27.5F 31F 32F 25 0% - 99% 0 mhos 39 Snow Slight 0.06 in 0.0 iph
11/23/2014 19:19 Ice Warning 27.9F 31F 32F 25 0% - 99% 0 mhos 39 Snow Slight 0.06 in 0.0 iph
11/23/2014 19:10 Ice Warning 27.3F 31F 32F 20 0% - 99% 0 mhos 40 Snow Slight 0.04 in 0.0 iph
11/23/2014 19:09 Ice Warning 27.1F 31F 32F 25 0% - 99% 0 mhos 40 Snow Slight 0.04 in 0.0 iph
11/23/2014 18:59 Ice Warning 27.3F 31F 32F 15 0% - 99% 0 mhos 39 Snow Slight 0.04 in 0.0 iph
11/23/2014 18:51 Ice Warning 28.0F 31F 32F 15 0% - 99% 0 mhos 41 Snow Slight 0.04 in 0.0 iph
11/23/2014 18:49 Ice Warning 28.2F 31F 32F 15 0% - 99% 0 mhos 40 Snow Slight 0.04 in 0.0 iph
Date/Time
(MST)
Sf
Temp Chem Water Layer Surface Precipitation
Sf Sub Frz Factor Pct Depth IcePct Cond Salin Type Intens Accum Rate
11/23/2014 18:40 Ice Warning 28.2F 31F 32F 30 0% - 99% 0 mhos 38 Snow Slight 0.03 in 0.0 iph
11/23/2014 18:39 Ice Warning 28.2F 31F 32F 25 0% - 99% 0 mhos 38 Snow Slight 0.03 in 0.0 iph
11/23/2014 18:29 Ice Warning 27.7F 31F 32F 15 0% - 99% 0 mhos 39 Snow Slight 0.03 in 0.0 iph
11/23/2014 18:21 Ice Warning 27.9F 31F 32F 15 0% - 99% 0 mhos 39 Snow Slight 0.03 in 0.0 iph
11/23/2014 18:19 Ice Warning 27.9F 31F 32F 20 0% - 99% 0 mhos 40 Snow Slight 0.03 in 0.0 iph
11/23/2014 18:10 Ice Warning 27.9F 31F 32F 15 0% - 99% 0 mhos 39 Snow Slight 0.02 in 0.0 iph
11/23/2014 18:09 Ice Warning 27.9F 31F 32F 15 0% - 99% 0 mhos 39 Snow Slight 0.02 in 0.0 iph
11/23/2014 17:59 Ice Warning 28.4F 31F 32F 20 0% - 99% 0 mhos 38 Snow Slight 0.02 in 0.0 iph
11/23/2014 17:51 Ice Warning 28.4F 31F 32F 30 0% - 99% 0 mhos 36 Snow Slight 0.02 in 0.0 iph
11/23/2014 17:49 Ice Warning 28.4F 31F 32F 40 0% - 99% 0 mhos 36 Snow Slight 0.02 in 0.0 iph
11/23/2014 17:40 Ice Warning 28.2F 31F 32F 35 0% - 99% 0 mhos 38 Snow Slight 0.02 in 0.0 iph
11/23/2014 17:39 Ice Warning 28.4F 31F 32F 25 0% - 99% 0 mhos 38 Snow Slight 0.02 in 0.0 iph
11/23/2014 17:29 Ice Warning 28.4F 31F 32F 25 0% - 99% 0 mhos 36 Snow Slight 0.01 in 0.0 iph
Change End Date:
Copyright © 1998-2005 Surface Systems, Inc.
All Rights Reserved
Send comments about the data to:
SCAN Web ® is a registered trademark of Surface Systems, Inc.
SCAN Web Version 5.6